Time,TemperatureF,DewpointF,PressureIn,WindDirection,WindDirectionDegrees,WindSpeedMPH,WindSpeedGustMPH,Humidity,HourlyPrecipIn,Conditions,Clouds,dailyrainin,SoftwareType,DateUTC
2013-01-10 00:00:00,76.5,70.6,30.28,East,90,8.0,-999.0,82,0.00,,,0.00,Wunderground v.1.15,2013-01-10 05:00:00,
2013-01-10 00:05:00,76.5,70.6,30.28,East,90,8.0,-999.0,82,0.00,,,0.00,Wunderground v.1.15,2013-01-10 05:05:00,
2013-01-10 00:10:00,76.5,70.6,30.28,East,90,8.0,-999.0,82,0.00,,,0.00,Wunderground v.1.15,2013-01-10 05:10:00,
2013-01-10 00:15:00,76.5,70.6,30.28,East,90,8.0,-999.0,82,0.00,,,0.00,Wunderground v.1.15,2013-01-10 05:15:00,
2013-01-10 00:20:00,76.5,70.6,30.28,East,90,8.0,-999.0,82,0.00,,,0.00,Wunderground v.1.15,2013-01-10 05:20:00,
2013-01-10 00:25:00,76.5,70.6,30.28,East,90,8.0,-999.0,82,0.00,,,0.00,Wunderground v.1.15,2013-01-10 05:25:00,
2013-01-10 00:30:00,76.5,70.6,30.28,East,90,8.0,-999.0,82,0.00,,,0.00,Wunderground v.1.15,2013-01-10 05:30:00,
2013-01-10 00:35:00,76.5,70.6,30.28,East,90,8.0,-999.0,82,0.00,,,0.00,Wunderground v.1.15,2013-01-10 05:35:00,
2013-01-10 00:40:00,76.5,70.6,30.28,East,90,8.0,-999.0,82,0.00,,,0.00,Wunderground v.1.15,2013-01-10 05:40:00,
2013-01-10 00:45:00,76.3,70.4,30.28,East,90,7.0,-999.0,82,0.00,,,0.00,Wunderground v.1.15,2013-01-10 05:45:00,
2013-01-10 00:50:00,76.3,70.4,30.28,East,90,7.0,-999.0,82,0.00,,,0.00,Wunderground v.1.15,2013-01-10 05:50:00,
2013-01-10 00:55:00,76.3,70.4,30.28,East,90,7.0,-999.0,82,0.00,,,0.00,Wunderground v.1.15,2013-01-10 05:55:00,
2013-01-10 01:00:00,76.3,70.4,30.28,East,90,7.0,-999.0,82,0.00,,,0.00,Wunderground v.1.15,2013-01-10 06:00:00,
2013-01-10 01:05:00,76.3,70.4,30.28,East,90,7.0,-999.0,82,0.00,,,0.00,Wunderground v.1.15,2013-01-10 06:05:00,
2013-01-10 01:10:00,76.3,70.4,30.28,East,90,7.0,-999.0,82,0.00,,,0.00,Wunderground v.1.15,2013-01-10 06:10:00,
2013-01-10 01:15:00,76.1,69.1,30.27,East,90,8.0,-999.0,79,0.00,,,0.00,Wunderground v.1.15,2013-01-10 06:15:00,
2013-01-10 01:20:00,76.1,69.1,30.27,East,90,8.0,-999.0,79,0.00,,,0.00,Wunderground v.1.15,2013-01-10 06:20:00,
2013-01-10 01:25:00,76.1,69.1,30.27,East,90,8.0,-999.0,79,0.00,,,0.00,Wunderground v.1.15,2013-01-10 06:25:00,
2013-01-10 01:30:00,76.1,69.1,30.27,East,90,8.0,-999.0,79,0.00,,,0.00,Wunderground v.1.15,2013-01-10 06:30:00,
2013-01-10 01:35:00,76.1,69.1,30.27,East,90,8.0,-999.0,79,0.00,,,0.00,Wunderground v.1.15,2013-01-10 06:35:00,
2013-01-10 01:40:00,76.1,69.1,30.27,East,90,8.0,-999.0,79,0.00,,,0.00,Wunderground v.1.15,2013-01-10 06:40:00,
2013-01-10 01:45:00,76.0,69.4,30.27,East,90,8.0,-999.0,80,0.00,,,0.00,Wunderground v.1.15,2013-01-10 06:45:00,
2013-01-10 01:50:00,76.0,69.4,30.27,East,90,8.0,-999.0,80,0.00,,,0.00,Wunderground v.1.15,2013-01-10 06:50:00,
2013-01-10 01:55:00,76.0,69.4,30.27,East,90,8.0,-999.0,80,0.00,,,0.00,Wunderground v.1.15,2013-01-10 06:55:00,
2013-01-10 02:00:00,76.0,69.4,30.27,East,90,8.0,-999.0,80,0.00,,,0.00,Wunderground v.1.15,2013-01-10 07:00:00,
2013-01-10 02:05:00,76.0,69.4,30.27,East,90,8.0,-999.0,80,0.00,,,0.00,Wunderground v.1.15,2013-01-10 07:05:00,
2013-01-10 02:10:00,76.0,69.4,30.27,East,90,8.0,-999.0,80,0.00,,,0.00,Wunderground v.1.15,2013-01-10 07:10:00,
2013-01-10 02:15:00,75.8,68.4,30.26,East,90,9.0,-999.0,78,0.00,,,0.00,Wunderground v.1.15,2013-01-10 07:15:00,
2013-01-10 02:20:00,75.8,68.4,30.26,East,90,9.0,-999.0,78,0.00,,,0.00,Wunderground v.1.15,2013-01-10 07:20:00,
2013-01-10 02:25:00,75.8,68.4,30.26,East,90,9.0,-999.0,78,0.00,,,0.00,Wunderground v.1.15,2013-01-10 07:25:00,
2013-01-10 02:30:00,75.8,68.4,30.26,East,90,9.0,-999.0,78,0.00,,,0.00,Wunderground v.1.15,2013-01-10 07:30:00,
2013-01-10 02:35:00,75.8,68.4,30.26,East,90,9.0,-999.0,78,0.00,,,0.00,Wunderground v.1.15,2013-01-10 07:35:00,
2013-01-10 02:40:00,75.8,68.4,30.26,East,90,9.0,-999.0,78,0.00,,,0.00,Wunderground v.1.15,2013-01-10 07:40:00,
2013-01-10 02:45:00,75.7,68.7,30.26,East,90,9.0,-999.0,79,0.00,,,0.00,Wunderground v.1.15,2013-01-10 07:45:00,
2013-01-10 02:50:00,75.7,68.7,30.26,East,90,9.0,-999.0,79,0.00,,,0.00,Wunderground v.1.15,2013-01-10 07:50:00,
2013-01-10 02:55:00,75.7,68.7,30.26,East,90,9.0,-999.0,79,0.00,,,0.00,Wunderground v.1.15,2013-01-10 07:55:00,
2013-01-10 03:00:00,75.7,68.7,30.26,East,90,9.0,-999.0,79,0.00,,,0.00,Wunderground v.1.15,2013-01-10 08:00:00,
2013-01-10 03:05:00,75.7,68.7,30.26,East,90,9.0,-999.0,79,0.00,,,0.00,Wunderground v.1.15,2013-01-10 08:05:00,
2013-01-10 03:10:00,75.7,68.7,30.26,East,90,9.0,-999.0,79,0.00,,,0.00,Wunderground v.1.15,2013-01-10 08:10:00,
2013-01-10 03:15:00,75.6,67.9,30.27,ESE,113,6.0,-999.0,77,0.00,,,0.00,Wunderground v.1.15,2013-01-10 08:15:00,
2013-01-10 03:20:00,75.6,67.9,30.27,ESE,113,6.0,-999.0,77,0.00,,,0.00,Wunderground v.1.15,2013-01-10 08:20:00,
2013-01-10 03:25:00,75.6,67.9,30.27,ESE,113,6.0,-999.0,77,0.00,,,0.00,Wunderground v.1.15,2013-01-10 08:25:00,
2013-01-10 03:30:00,75.6,67.9,30.27,ESE,113,6.0,-999.0,77,0.00,,,0.00,Wunderground v.1.15,2013-01-10 08:30:00,
2013-01-10 03:35:00,75.6,67.9,30.27,ESE,113,6.0,-999.0,77,0.00,,,0.00,Wunderground v.1.15,2013-01-10 08:35:00,
2013-01-10 03:40:00,75.6,67.9,30.27,ESE,113,6.0,-999.0,77,0.00,,,0.00,Wunderground v.1.15,2013-01-10 08:40:00,
2013-01-10 03:45:00,75.6,67.5,30.26,ESE,113,8.0,-999.0,76,0.00,,,0.00,Wunderground v.1.15,2013-01-10 08:45:00,
2013-01-10 03:50:00,75.6,67.5,30.26,ESE,113,8.0,-999.0,76,0.00,,,0.00,Wunderground v.1.15,2013-01-10 08:50:00,
2013-01-10 03:55:00,75.6,67.5,30.26,ESE,113,8.0,-999.0,76,0.00,,,0.00,Wunderground v.1.15,2013-01-10 08:55:00,
2013-01-10 04:00:00,75.6,67.5,30.26,ESE,113,8.0,-999.0,76,0.00,,,0.00,Wunderground v.1.15,2013-01-10 09:00:00,
2013-01-10 04:05:00,75.6,67.5,30.26,ESE,113,8.0,-999.0,76,0.00,,,0.00,Wunderground v.1.15,2013-01-10 09:05:00,
2013-01-10 04:10:00,75.6,67.5,30.26,ESE,113,8.0,-999.0,76,0.00,,,0.00,Wunderground v.1.15,2013-01-10 09:10:00,
2013-01-10 04:15:00,75.6,68.3,30.26,ESE,113,6.0,-999.0,78,0.00,,,0.00,Wunderground v.1.15,2013-01-10 09:15:00,
2013-01-10 04:20:00,75.6,68.3,30.26,ESE,113,6.0,-999.0,78,0.00,,,0.00,Wunderground v.1.15,2013-01-10 09:20:00,
2013-01-10 04:25:00,75.6,68.3,30.26,ESE,113,6.0,-999.0,78,0.00,,,0.00,Wunderground v.1.15,2013-01-10 09:25:00,
2013-01-10 04:30:00,75.6,68.3,30.26,ESE,113,6.0,-999.0,78,0.00,,,0.00,Wunderground v.1.15,2013-01-10 09:30:00,
2013-01-10 04:35:00,75.6,68.3,30.26,ESE,113,6.0,-999.0,78,0.00,,,0.00,Wunderground v.1.15,2013-01-10 09:35:00,
2013-01-10 04:40:00,75.6,68.3,30.26,ESE,113,6.0,-999.0,78,0.00,,,0.00,Wunderground v.1.15,2013-01-10 09:40:00,
2013-01-10 04:45:00,75.3,68.0,30.26,ESE,113,6.0,-999.0,78,0.00,,,0.00,Wunderground v.1.15,2013-01-10 09:45:00,
2013-01-10 04:50:00,75.3,68.0,30.26,ESE,113,6.0,-999.0,78,0.00,,,0.00,Wunderground v.1.15,2013-01-10 09:50:00,
2013-01-10 04:55:00,75.3,68.0,30.26,ESE,113,6.0,-999.0,78,0.00,,,0.00,Wunderground v.1.15,2013-01-10 09:55:00,
2013-01-10 05:00:00,75.3,68.0,30.26,ESE,113,6.0,-999.0,78,0.00,,,0.00,Wunderground v.1.15,2013-01-10 10:00:00,
2013-01-10 05:05:00,75.3,68.0,30.26,ESE,113,6.0,-999.0,78,0.00,,,0.00,Wunderground v.1.15,2013-01-10 10:05:00,
2013-01-10 05:10:00,75.3,68.0,30.26,ESE,113,6.0,-999.0,78,0.00,,,0.00,Wunderground v.1.15,2013-01-10 10:10:00,
2013-01-10 05:15:00,75.2,67.9,30.26,ESE,113,6.0,-999.0,78,0.00,,,0.00,Wunderground v.1.15,2013-01-10 10:15:00,
2013-01-10 05:20:00,75.2,67.9,30.26,ESE,113,6.0,-999.0,78,0.00,,,0.00,Wunderground v.1.15,2013-01-10 10:20:00,
2013-01-10 05:25:00,75.2,67.9,30.26,ESE,113,6.0,-999.0,78,0.00,,,0.00,Wunderground v.1.15,2013-01-10 10:25:00,
2013-01-10 05:30:00,75.2,67.9,30.26,ESE,113,6.0,-999.0,78,0.00,,,0.00,Wunderground v.1.15,2013-01-10 10:30:00,
2013-01-10 05:35:00,75.2,67.9,30.26,ESE,113,6.0,-999.0,78,0.00,,,0.00,Wunderground v.1.15,2013-01-10 10:35:00,
2013-01-10 05:40:00,75.2,67.9,30.26,ESE,113,6.0,-999.0,78,0.00,,,0.00,Wunderground v.1.15,2013-01-10 10:40:00,
2013-01-10 05:45:00,75.0,67.3,30.26,ESE,113,5.0,-999.0,77,0.00,,,0.00,Wunderground v.1.15,2013-01-10 10:45:00,
2013-01-10 05:50:00,75.0,67.3,30.26,ESE,113,5.0,-999.0,77,0.00,,,0.00,Wunderground v.1.15,2013-01-10 10:50:00,
2013-01-10 05:55:00,75.0,67.3,30.26,ESE,113,5.0,-999.0,77,0.00,,,0.00,Wunderground v.1.15,2013-01-10 10:55:00,
2013-01-10 06:00:00,75.0,67.3,30.26,ESE,113,5.0,-999.0,77,0.00,,,0.00,Wunderground v.1.15,2013-01-10 11:00:00,
2013-01-10 06:05:00,75.0,67.3,30.26,ESE,113,5.0,-999.0,77,0.00,,,0.00,Wunderground v.1.15,2013-01-10 11:05:00,
2013-01-10 06:10:00,75.0,67.3,30.26,ESE,113,5.0,-999.0,77,0.00,,,0.00,Wunderground v.1.15,2013-01-10 11:10:00,
2013-01-10 06:15:00,75.2,67.9,30.27,ESE,113,5.0,-999.0,78,0.00,,,0.00,Wunderground v.1.15,2013-01-10 11:15:00,
2013-01-10 06:20:00,75.2,67.9,30.27,ESE,113,5.0,-999.0,78,0.00,,,0.00,Wunderground v.1.15,2013-01-10 11:20:00,
2013-01-10 06:25:00,75.2,67.9,30.27,ESE,113,5.0,-999.0,78,0.00,,,0.00,Wunderground v.1.15,2013-01-10 11:25:00,
2013-01-10 06:30:00,75.2,67.9,30.27,ESE,113,5.0,-999.0,78,0.00,,,0.00,Wunderground v.1.15,2013-01-10 11:30:00,
2013-01-10 06:35:00,75.2,67.9,30.27,ESE,113,5.0,-999.0,78,0.00,,,0.00,Wunderground v.1.15,2013-01-10 11:35:00,
2013-01-10 06:40:00,75.2,67.9,30.27,ESE,113,5.0,-999.0,78,0.00,,,0.00,Wunderground v.1.15,2013-01-10 11:40:00,
2013-01-10 06:45:00,75.2,67.5,30.27,ESE,113,6.0,-999.0,77,0.00,,,0.00,Wunderground v.1.15,2013-01-10 11:45:00,
2013-01-10 06:50:00,75.2,67.5,30.27,ESE,113,6.0,-999.0,77,0.00,,,0.00,Wunderground v.1.15,2013-01-10 11:50:00,
2013-01-10 06:55:00,75.2,67.5,30.27,ESE,113,6.0,-999.0,77,0.00,,,0.00,Wunderground v.1.15,2013-01-10 11:55:00,
2013-01-10 07:00:00,75.2,67.5,30.27,ESE,113,6.0,-999.0,77,0.00,,,0.00,Wunderground v.1.15,2013-01-10 12:00:00,
2013-01-10 07:05:00,75.2,67.5,30.27,ESE,113,6.0,-999.0,77,0.00,,,0.00,Wunderground v.1.15,2013-01-10 12:05:00,
2013-01-10 07:10:00,75.2,67.5,30.27,ESE,113,6.0,-999.0,77,0.00,,,0.00,Wunderground v.1.15,2013-01-10 12:10:00,
2013-01-10 07:15:00,75.0,66.9,30.28,ESE,113,6.0,-999.0,76,0.00,,,0.00,Wunderground v.1.15,2013-01-10 12:15:00,
2013-01-10 07:20:00,75.0,66.9,30.28,ESE,113,6.0,-999.0,76,0.00,,,0.00,Wunderground v.1.15,2013-01-10 12:20:00,
2013-01-10 07:25:00,75.0,66.9,30.28,ESE,113,6.0,-999.0,76,0.00,,,0.00,Wunderground v.1.15,2013-01-10 12:25:00,
2013-01-10 07:30:00,75.0,66.9,30.28,ESE,113,6.0,-999.0,76,0.00,,,0.00,Wunderground v.1.15,2013-01-10 12:30:00,
2013-01-10 07:35:00,75.0,66.9,30.28,ESE,113,6.0,-999.0,76,0.00,,,0.00,Wunderground v.1.15,2013-01-10 12:35:00,
2013-01-10 07:40:00,75.0,66.9,30.28,ESE,113,6.0,-999.0,76,0.00,,,0.00,Wunderground v.1.15,2013-01-10 12:40:00,
2013-01-10 07:45:00,75.5,67.0,30.29,ESE,113,6.0,-999.0,75,0.00,,,0.00,Wunderground v.1.15,2013-01-10 12:45:00,
2013-01-10 07:50:00,75.5,67.0,30.29,ESE,113,6.0,-999.0,75,0.00,,,0.00,Wunderground v.1.15,2013-01-10 12:50:00,
2013-01-10 07:55:00,75.5,67.0,30.29,ESE,113,6.0,-999.0,75,0.00,,,0.00,Wunderground v.1.15,2013-01-10 12:55:00,
2013-01-10 08:00:00,75.5,67.0,30.29,ESE,113,6.0,-999.0,75,0.00,,,0.00,Wunderground v.1.15,2013-01-10 13:00:00,
2013-01-10 08:05:00,75.5,67.0,30.29,ESE,113,6.0,-999.0,75,0.00,,,0.00,Wunderground v.1.15,2013-01-10 13:05:00,
2013-01-10 08:10:00,75.5,67.0,30.29,ESE,113,6.0,-999.0,75,0.00,,,0.00,Wunderground v.1.15,2013-01-10 13:10:00,
2013-01-10 08:15:00,76.1,67.2,30.30,ESE,113,6.0,-999.0,74,0.00,,,0.00,Wunderground v.1.15,2013-01-10 13:15:00,
2013-01-10 08:20:00,76.1,67.2,30.30,ESE,113,6.0,-999.0,74,0.00,,,0.00,Wunderground v.1.15,2013-01-10 13:20:00,
2013-01-10 08:25:00,76.1,67.2,30.30,ESE,113,6.0,-999.0,74,0.00,,,0.00,Wunderground v.1.15,2013-01-10 13:25:00,
2013-01-10 08:30:00,76.1,67.2,30.30,ESE,113,6.0,-999.0,74,0.00,,,0.00,Wunderground v.1.15,2013-01-10 13:30:00,
2013-01-10 08:35:00,76.1,67.2,30.30,ESE,113,6.0,-999.0,74,0.00,,,0.00,Wunderground v.1.15,2013-01-10 13:35:00,
2013-01-10 08:40:00,76.1,67.2,30.30,ESE,113,6.0,-999.0,74,0.00,,,0.00,Wunderground v.1.15,2013-01-10 13:40:00,
2013-01-10 08:45:00,76.4,67.5,30.31,ESE,113,6.0,-999.0,74,0.00,,,0.00,Wunderground v.1.15,2013-01-10 13:45:00,
2013-01-10 08:50:00,76.4,67.5,30.31,ESE,113,6.0,-999.0,74,0.00,,,0.00,Wunderground v.1.15,2013-01-10 13:50:00,
2013-01-10 08:55:00,76.4,67.5,30.31,ESE,113,6.0,-999.0,74,0.00,,,0.00,Wunderground v.1.15,2013-01-10 13:55:00,
2013-01-10 09:00:00,76.4,67.5,30.31,ESE,113,6.0,-999.0,74,0.00,,,0.00,Wunderground v.1.15,2013-01-10 14:00:00,
2013-01-10 09:05:00,76.4,67.5,30.31,ESE,113,6.0,-999.0,74,0.00,,,0.00,Wunderground v.1.15,2013-01-10 14:05:00,
2013-01-10 09:10:00,76.4,67.5,30.31,ESE,113,6.0,-999.0,74,0.00,,,0.00,Wunderground v.1.15,2013-01-10 14:10:00,
2013-01-10 09:15:00,77.1,67.4,30.32,ESE,113,6.0,-999.0,72,0.00,,,0.00,Wunderground v.1.15,2013-01-10 14:15:00,
2013-01-10 09:20:00,77.1,67.4,30.32,ESE,113,6.0,-999.0,72,0.00,,,0.00,Wunderground v.1.15,2013-01-10 14:20:00,
2013-01-10 09:25:00,77.1,67.4,30.32,ESE,113,6.0,-999.0,72,0.00,,,0.00,Wunderground v.1.15,2013-01-10 14:25:00,
2013-01-10 09:30:00,77.1,67.4,30.32,ESE,113,6.0,-999.0,72,0.00,,,0.00,Wunderground v.1.15,2013-01-10 14:30:00,
2013-01-10 09:35:00,77.1,67.4,30.32,ESE,113,6.0,-999.0,72,0.00,,,0.00,Wunderground v.1.15,2013-01-10 14:35:00,
2013-01-10 09:40:00,77.1,67.4,30.32,ESE,113,6.0,-999.0,72,0.00,,,0.00,Wunderground v.1.15,2013-01-10 14:40:00,
2013-01-10 09:45:00,77.6,67.4,30.30,ESE,113,6.0,-999.0,71,0.00,,,0.00,Wunderground v.1.15,2013-01-10 14:45:00,
2013-01-10 09:50:00,77.6,67.4,30.30,ESE,113,6.0,-999.0,71,0.00,,,0.00,Wunderground v.1.15,2013-01-10 14:50:00,
2013-01-10 09:55:00,77.6,67.4,30.30,ESE,113,6.0,-999.0,71,0.00,,,0.00,Wunderground v.1.15,2013-01-10 14:55:00,
2013-01-10 10:00:00,77.6,67.4,30.30,ESE,113,6.0,-999.0,71,0.00,,,0.00,Wunderground v.1.15,2013-01-10 15:00:00,
2013-01-10 10:05:00,77.6,67.4,30.30,ESE,113,6.0,-999.0,71,0.00,,,0.00,Wunderground v.1.15,2013-01-10 15:05:00,
2013-01-10 10:10:00,77.6,67.4,30.30,ESE,113,6.0,-999.0,71,0.00,,,0.00,Wunderground v.1.15,2013-01-10 15:10:00,
2013-01-10 10:15:00,77.9,68.1,30.29,ESE,113,7.0,-999.0,72,0.00,,,0.00,Wunderground v.1.15,2013-01-10 15:15:00,
2013-01-10 10:20:00,77.9,68.1,30.29,ESE,113,7.0,-999.0,72,0.00,,,0.00,Wunderground v.1.15,2013-01-10 15:20:00,
2013-01-10 10:25:00,77.9,68.1,30.29,ESE,113,7.0,-999.0,72,0.00,,,0.00,Wunderground v.1.15,2013-01-10 15:25:00,
2013-01-10 10:30:00,77.9,68.1,30.29,ESE,113,7.0,-999.0,72,0.00,,,0.00,Wunderground v.1.15,2013-01-10 15:30:00,
2013-01-10 10:35:00,77.9,68.1,30.29,ESE,113,7.0,-999.0,72,0.00,,,0.00,Wunderground v.1.15,2013-01-10 15:35:00,
2013-01-10 10:40:00,77.9,68.1,30.29,ESE,113,7.0,-999.0,72,0.00,,,0.00,Wunderground v.1.15,2013-01-10 15:40:00,
2013-01-10 10:45:00,78.1,68.3,30.29,ESE,113,8.0,-999.0,72,0.00,,,0.00,Wunderground v.1.15,2013-01-10 15:45:00,
2013-01-10 10:50:00,78.1,68.3,30.29,ESE,113,8.0,-999.0,72,0.00,,,0.00,Wunderground v.1.15,2013-01-10 15:50:00,
2013-01-10 10:55:00,78.1,68.3,30.29,ESE,113,8.0,-999.0,72,0.00,,,0.00,Wunderground v.1.15,2013-01-10 15:55:00,
2013-01-10 11:00:00,78.1,68.3,30.29,ESE,113,8.0,-999.0,72,0.00,,,0.00,Wunderground v.1.15,2013-01-10 16:00:00,
2013-01-10 11:05:00,78.1,68.3,30.29,ESE,113,8.0,-999.0,72,0.00,,,0.00,Wunderground v.1.15,2013-01-10 16:05:00,
2013-01-10 11:10:00,78.1,68.3,30.29,ESE,113,8.0,-999.0,72,0.00,,,0.00,Wunderground v.1.15,2013-01-10 16:10:00,
2013-01-10 11:15:00,78.0,67.4,30.27,ESE,113,8.0,-999.0,70,0.00,,,0.00,Wunderground v.1.15,2013-01-10 16:15:00,
2013-01-10 11:20:00,78.0,67.4,30.27,ESE,113,8.0,-999.0,70,0.00,,,0.00,Wunderground v.1.15,2013-01-10 16:20:00,
2013-01-10 11:25:00,78.0,67.4,30.27,ESE,113,8.0,-999.0,70,0.00,,,0.00,Wunderground v.1.15,2013-01-10 16:25:00,
2013-01-10 11:30:00,78.0,67.4,30.27,ESE,113,8.0,-999.0,70,0.00,,,0.00,Wunderground v.1.15,2013-01-10 16:30:00,
2013-01-10 11:35:00,78.0,67.4,30.27,ESE,113,8.0,-999.0,70,0.00,,,0.00,Wunderground v.1.15,2013-01-10 16:35:00,
2013-01-10 11:40:00,78.0,67.4,30.27,ESE,113,8.0,-999.0,70,0.00,,,0.00,Wunderground v.1.15,2013-01-10 16:40:00,
2013-01-10 11:45:00,78.2,66.3,30.25,ESE,113,9.0,-999.0,67,0.00,,,0.00,Wunderground v.1.15,2013-01-10 16:45:00,
2013-01-10 11:50:00,78.2,66.3,30.25,ESE,113,9.0,-999.0,67,0.00,,,0.00,Wunderground v.1.15,2013-01-10 16:50:00,
2013-01-10 11:55:00,78.2,66.3,30.25,ESE,113,9.0,-999.0,67,0.00,,,0.00,Wunderground v.1.15,2013-01-10 16:55:00,
2013-01-10 12:00:00,78.2,66.3,30.25,ESE,113,9.0,-999.0,67,0.00,,,0.00,Wunderground v.1.15,2013-01-10 17:00:00,
2013-01-10 12:05:00,78.2,66.3,30.25,ESE,113,9.0,-999.0,67,0.00,,,0.00,Wunderground v.1.15,2013-01-10 17:05:00,
2013-01-10 12:10:00,78.2,66.3,30.25,ESE,113,9.0,-999.0,67,0.00,,,0.00,Wunderground v.1.15,2013-01-10 17:10:00,
2013-01-10 12:15:00,78.4,66.1,30.23,ESE,113,9.0,-999.0,66,0.00,,,0.00,Wunderground v.1.15,2013-01-10 17:15:00,
2013-01-10 12:20:00,78.4,66.1,30.23,ESE,113,9.0,-999.0,66,0.00,,,0.00,Wunderground v.1.15,2013-01-10 17:20:00,
2013-01-10 12:25:00,78.4,66.1,30.23,ESE,113,9.0,-999.0,66,0.00,,,0.00,Wunderground v.1.15,2013-01-10 17:25:00,
2013-01-10 12:30:00,78.4,66.1,30.23,ESE,113,9.0,-999.0,66,0.00,,,0.00,Wunderground v.1.15,2013-01-10 17:30:00,
2013-01-10 12:35:00,78.4,66.1,30.23,ESE,113,9.0,-999.0,66,0.00,,,0.00,Wunderground v.1.15,2013-01-10 17:35:00,
2013-01-10 12:40:00,78.4,66.1,30.23,ESE,113,9.0,-999.0,66,0.00,,,0.00,Wunderground v.1.15,2013-01-10 17:40:00,
2013-01-10 12:45:00,78.3,65.6,30.22,East,90,9.0,-999.0,65,0.00,,,0.00,Wunderground v.1.15,2013-01-10 17:45:00,
2013-01-10 12:50:00,78.3,65.6,30.22,East,90,9.0,-999.0,65,0.00,,,0.00,Wunderground v.1.15,2013-01-10 17:50:00,
2013-01-10 12:55:00,78.3,65.6,30.22,East,90,9.0,-999.0,65,0.00,,,0.00,Wunderground v.1.15,2013-01-10 17:55:00,
2013-01-10 13:00:00,78.3,65.6,30.22,East,90,9.0,-999.0,65,0.00,,,0.00,Wunderground v.1.15,2013-01-10 18:00:00,
2013-01-10 13:05:00,78.3,65.6,30.22,East,90,9.0,-999.0,65,0.00,,,0.00,Wunderground v.1.15,2013-01-10 18:05:00,
2013-01-10 13:10:00,78.3,65.6,30.22,East,90,9.0,-999.0,65,0.00,,,0.00,Wunderground v.1.15,2013-01-10 18:10:00,
2013-01-10 13:15:00,78.2,66.8,30.20,ESE,113,10.0,-999.0,68,0.00,,,0.00,Wunderground v.1.15,2013-01-10 18:15:00,
2013-01-10 13:20:00,78.2,66.8,30.20,ESE,113,10.0,-999.0,68,0.00,,,0.00,Wunderground v.1.15,2013-01-10 18:20:00,
2013-01-10 13:25:00,78.2,66.8,30.20,ESE,113,10.0,-999.0,68,0.00,,,0.00,Wunderground v.1.15,2013-01-10 18:25:00,
2013-01-10 13:30:00,78.2,66.8,30.20,ESE,113,10.0,-999.0,68,0.00,,,0.00,Wunderground v.1.15,2013-01-10 18:30:00,
2013-01-10 13:35:00,78.2,66.8,30.20,ESE,113,10.0,-999.0,68,0.00,,,0.00,Wunderground v.1.15,2013-01-10 18:35:00,
2013-01-10 13:40:00,78.2,66.8,30.20,ESE,113,10.0,-999.0,68,0.00,,,0.00,Wunderground v.1.15,2013-01-10 18:40:00,
2013-01-10 13:45:00,78.1,66.2,30.20,ESE,113,9.0,-999.0,67,0.00,,,0.00,Wunderground v.1.15,2013-01-10 18:45:00,
2013-01-10 13:50:00,78.1,66.2,30.20,ESE,113,9.0,-999.0,67,0.00,,,0.00,Wunderground v.1.15,2013-01-10 18:50:00,
2013-01-10 13:55:00,78.1,66.2,30.20,ESE,113,9.0,-999.0,67,0.00,,,0.00,Wunderground v.1.15,2013-01-10 18:55:00,
2013-01-10 14:00:00,78.1,66.2,30.20,ESE,113,9.0,-999.0,67,0.00,,,0.00,Wunderground v.1.15,2013-01-10 19:00:00,
2013-01-10 14:05:00,78.1,66.2,30.20,ESE,113,9.0,-999.0,67,0.00,,,0.00,Wunderground v.1.15,2013-01-10 19:05:00,
2013-01-10 14:10:00,78.1,66.2,30.20,ESE,113,9.0,-999.0,67,0.00,,,0.00,Wunderground v.1.15,2013-01-10 19:10:00,
2013-01-10 14:15:00,78.1,65.4,30.20,East,90,10.0,-999.0,65,0.00,,,0.00,Wunderground v.1.15,2013-01-10 19:15:00,
2013-01-10 14:20:00,78.1,65.4,30.20,East,90,10.0,-999.0,65,0.00,,,0.00,Wunderground v.1.15,2013-01-10 19:20:00,
2013-01-10 14:25:00,78.1,65.4,30.20,East,90,10.0,-999.0,65,0.00,,,0.00,Wunderground v.1.15,2013-01-10 19:25:00,
2013-01-10 14:38:00,78.1,65.4,30.20,East,90,10.0,-999.0,65,0.00,,,0.00,Wunderground v.1.15,2013-01-10 19:38:00,
2013-01-10 15:00:00,78.1,66.7,30.21,ESE,117,8.0,8.0,68,0.00,,,0.00,Wunderground v.1.15,2013-01-10 20:00:00,
2013-01-10 15:10:00,78.3,66.4,30.22,ESE,113,8.0,14.0,67,0.00,,,0.00,Wunderground v.1.15,2013-01-10 20:10:00,
2013-01-10 15:20:00,77.4,67.7,30.22,ENE,76,9.0,9.0,72,0.00,,,0.00,Wunderground v.1.15,2013-01-10 20:20:00,
2013-01-10 15:30:00,77.5,68.2,30.23,East,79,9.0,9.0,73,0.00,,,0.00,Wunderground v.1.15,2013-01-10 20:30:00,
2013-01-10 15:40:00,77.9,66.5,30.23,East,94,7.0,9.0,68,0.00,,,0.00,Wunderground v.1.15,2013-01-10 20:40:00,
2013-01-10 15:50:00,77.8,66.4,30.23,ENE,57,8.0,8.0,68,0.00,,,0.00,Wunderground v.1.15,2013-01-10 20:50:00,
2013-01-10 16:00:00,77.6,67.0,30.24,SE,130,6.0,6.0,70,0.00,,,0.00,Wunderground v.1.15,2013-01-10 21:00:00,
2013-01-10 16:10:00,77.1,67.4,30.24,East,94,6.0,6.0,72,0.00,,,0.00,Wunderground v.1.15,2013-01-10 21:10:00,
2013-01-10 16:20:00,77.0,67.3,30.25,East,86,6.0,6.0,72,0.00,,,0.00,Wunderground v.1.15,2013-01-10 21:20:00,
2013-01-10 16:30:00,77.0,67.3,30.25,East,91,5.0,5.0,72,0.00,,,0.00,Wunderground v.1.15,2013-01-10 21:30:00,
2013-01-10 16:40:00,76.8,67.9,30.26,East,99,5.0,5.0,74,0.00,,,0.00,Wunderground v.1.15,2013-01-10 21:40:00,
2013-01-10 16:50:00,76.6,67.7,30.26,ESE,112,5.0,5.0,74,0.00,,,0.00,Wunderground v.1.15,2013-01-10 21:50:00,
2013-01-10 17:00:00,76.6,68.1,30.25,ENE,68,3.0,3.0,75,0.00,,,0.00,Wunderground v.1.15,2013-01-10 22:00:00,
2013-01-10 17:10:00,76.2,67.7,30.26,East,101,5.0,5.0,75,0.00,,,0.00,Wunderground v.1.15,2013-01-10 22:10:00,
2013-01-10 17:20:00,76.1,68.0,30.26,ESE,104,3.0,4.0,76,0.00,,,0.00,Wunderground v.1.15,2013-01-10 22:20:00,
2013-01-10 17:30:00,76.0,67.9,30.26,ENE,72,4.0,6.0,76,0.00,,,0.00,Wunderground v.1.15,2013-01-10 22:30:00,
2013-01-10 17:40:00,75.9,68.2,30.26,ESE,113,4.0,4.0,77,0.00,,,0.00,Wunderground v.1.15,2013-01-10 22:40:00,
2013-01-10 17:50:00,75.9,68.2,30.26,ENE,69,4.0,4.0,77,0.00,,,0.00,Wunderground v.1.15,2013-01-10 22:50:00,
2013-01-10 18:00:00,75.8,68.1,30.26,NE,40,5.0,7.0,77,0.00,,,0.00,Wunderground v.1.15,2013-01-10 23:00:00,
2013-01-10 18:10:00,75.6,67.9,30.26,ENE,71,4.0,6.0,77,0.00,,,0.00,Wunderground v.1.15,2013-01-10 23:10:00,
2013-01-10 18:20:00,75.7,68.0,30.27,East,98,6.0,6.0,77,0.00,,,0.00,Wunderground v.1.15,2013-01-10 23:20:00,
2013-01-10 18:30:00,75.6,67.9,30.26,ENE,75,6.0,6.0,77,0.00,,,0.00,Wunderground v.1.15,2013-01-10 23:30:00,
2013-01-10 18:40:00,75.6,67.9,30.26,East,94,6.0,9.0,77,0.00,,,0.00,Wunderground v.1.15,2013-01-10 23:40:00,
2013-01-10 18:50:00,75.6,67.1,30.27,ESE,103,6.0,9.0,75,0.00,,,0.00,Wunderground v.1.15,2013-01-10 23:50:00,
2013-01-10 19:00:00,75.6,67.1,30.27,East,83,5.0,5.0,75,0.00,,,0.00,Wunderground v.1.15,2013-01-11 00:00:00,
2013-01-10 19:10:00,75.7,67.2,30.27,East,81,6.0,6.0,75,0.00,,,0.00,Wunderground v.1.15,2013-01-11 00:10:00,
2013-01-10 19:20:00,75.6,67.1,30.27,ESE,108,5.0,6.0,75,0.00,,,0.00,Wunderground v.1.15,2013-01-11 00:20:00,
2013-01-10 19:30:00,75.6,66.7,30.27,East,81,6.0,8.0,74,0.00,,,0.00,Wunderground v.1.15,2013-01-11 00:30:00,
2013-01-10 19:40:00,75.6,67.5,30.27,ESE,122,5.0,5.0,76,0.00,,,0.00,Wunderground v.1.15,2013-01-11 00:40:00,
2013-01-10 19:50:00,75.5,67.0,30.27,East,101,5.0,5.0,75,0.00,,,0.00,Wunderground v.1.15,2013-01-11 00:50:00,
2013-01-10 20:30:00,75.4,67.3,30.27,East,86,5.0,5.0,76,0.00,,,0.00,Wunderground v.1.15,2013-01-11 01:30:00,
2013-01-10 20:40:00,75.3,67.6,30.26,ESE,119,6.0,6.0,77,0.00,,,0.00,Wunderground v.1.15,2013-01-11 01:40:00,
2013-01-10 20:50:00,75.4,67.7,30.27,East,85,6.0,6.0,77,0.00,,,0.00,Wunderground v.1.15,2013-01-11 01:50:00,
2013-01-10 21:00:00,75.4,67.3,30.27,ESE,118,6.0,6.0,76,0.00,,,0.00,Wunderground v.1.15,2013-01-11 02:00:00,
2013-01-10 21:10:00,75.5,67.4,30.26,East,90,6.0,6.0,76,0.00,,,0.00,Wunderground v.1.15,2013-01-11 02:10:00,
2013-01-10 21:20:00,75.5,67.0,30.27,ENE,74,7.0,8.0,75,0.00,,,0.00,Wunderground v.1.15,2013-01-11 02:20:00,
2013-01-10 21:30:00,75.6,67.5,30.27,East,89,7.0,8.0,76,0.00,,,0.00,Wunderground v.1.15,2013-01-11 02:30:00,
2013-01-10 21:40:00,75.6,67.5,30.27,ENE,68,7.0,7.0,76,0.00,,,0.00,Wunderground v.1.15,2013-01-11 02:40:00,
2013-01-10 21:50:00,75.6,67.9,30.27,ENE,73,8.0,8.0,77,0.00,,,0.00,Wunderground v.1.15,2013-01-11 02:50:00,
2013-01-10 22:00:00,75.6,67.9,30.27,East,91,8.0,8.0,77,0.00,,,0.00,Wunderground v.1.15,2013-01-11 03:00:00,
2013-01-10 22:10:00,75.7,68.4,30.27,East,98,6.0,6.0,78,0.00,,,0.00,Wunderground v.1.15,2013-01-11 03:10:00,
2013-01-10 22:20:00,75.8,68.4,30.27,East,91,8.0,8.0,78,0.00,,,0.00,Wunderground v.1.15,2013-01-11 03:20:00,
2013-01-10 22:30:00,76.0,69.0,30.27,ESE,115,7.0,12.0,79,0.00,,,0.00,Wunderground v.1.15,2013-01-11 03:30:00,
2013-01-10 22:40:00,75.9,68.9,30.27,ESE,104,7.0,8.0,79,0.00,,,0.00,Wunderground v.1.15,2013-01-11 03:40:00,
2013-01-10 22:50:00,75.9,68.9,30.27,ESE,122,8.0,8.0,79,0.00,,,0.00,Wunderground v.1.15,2013-01-11 03:50:00,
2013-01-10 23:00:00,75.9,69.3,30.27,East,91,7.0,7.0,80,0.00,,,0.00,Wunderground v.1.15,2013-01-11 04:00:00,
2013-01-10 23:10:00,75.9,69.6,30.27,East,86,6.0,11.0,81,0.00,,,0.00,Wunderground v.1.15,2013-01-11 04:10:00,
2013-01-10 23:20:00,75.8,69.6,30.27,ESE,110,8.0,8.0,81,0.00,,,0.00,Wunderground v.1.15,2013-01-11 04:20:00,
2013-01-10 23:30:00,75.7,68.4,30.27,ESE,108,8.0,8.0,78,0.00,,,0.00,Wunderground v.1.15,2013-01-11 04:30:00,
2013-01-10 23:40:00,75.8,68.4,30.27,SE,138,8.0,8.0,78,0.00,,,0.00,Wunderground v.1.15,2013-01-11 04:40:00,
2013-01-10 23:50:00,75.9,68.5,30.27,East,96,7.0,7.0,78,0.00,,,0.00,Wunderground v.1.15,2013-01-11 04:50:00,